Time,TemperatureF,DewpointF,PressureIn,WindDirection,WindDirectionDegrees,WindSpeedMPH,WindSpeedGustMPH,Humidity,HourlyPrecipIn,Conditions,Clouds,dailyrainin,SoftwareType,DateUTC
2013-11-24 00:02:00,32.9,32.8,28.58,SE,138,3.2,-999.0,99,0.00,,,-99.99,,2013-11-24 09:02:00,
2013-11-24 00:07:00,33.0,32.9,28.59,SSW,202,4.2,-999.0,99,0.00,,,-99.99,,2013-11-24 09:07:00,
2013-11-24 00:12:00,33.2,33.1,28.60,East,91,3.0,-999.0,99,0.00,,,-99.99,,2013-11-24 09:12:00,
2013-11-24 00:17:00,33.0,33.0,28.60,NNE,22,1.0,-999.0,99,0.00,,,-99.99,,2013-11-24 09:17:00,
2013-11-24 00:22:00,33.2,33.1,28.57,WSW,245,5.8,-999.0,99,0.00,,,-99.99,,2013-11-24 09:22:00,
2013-11-24 00:27:00,33.1,33.0,28.58,WNW,287,4.4,-999.0,99,0.00,,,-99.99,,2013-11-24 09:27:00,
2013-11-24 00:32:00,33.1,33.0,28.59,SSW,207,6.1,-999.0,99,0.00,,,-99.99,,2013-11-24 09:32:00,
2013-11-24 00:37:00,33.1,33.0,28.60,SSE,168,1.0,-999.0,99,0.00,,,-99.99,,2013-11-24 09:37:00,
2013-11-24 00:42:00,33.2,33.1,28.61,East,84,2.9,-999.0,99,0.00,,,-99.99,,2013-11-24 09:42:00,
2013-11-24 00:47:00,33.3,33.2,28.60,NNW,329,5.0,-999.0,99,0.00,,,-99.99,,2013-11-24 09:47:00,
2013-11-24 00:52:00,33.0,32.9,28.57,ESE,123,3.2,-999.0,99,0.00,,,-99.99,,2013-11-24 09:52:00,
2013-11-24 00:57:00,32.7,32.6,28.59,South,188,2.9,-999.0,99,0.00,,,-99.99,,2013-11-24 09:57:00,
2013-11-24 01:02:00,32.7,32.6,28.61,ESE,110,2.6,-999.0,99,0.00,,,-99.99,,2013-11-24 10:02:00,
2013-11-24 01:07:00,32.7,32.7,28.59,NNW,335,2.8,-999.0,99,0.00,,,-99.99,,2013-11-24 10:07:00,
2013-11-24 01:12:00,32.8,32.8,28.60,North,5,2.3,-999.0,99,0.00,,,-99.99,,2013-11-24 10:12:00,
2013-11-24 01:17:00,32.9,32.8,28.59,ESE,120,1.2,-999.0,99,0.00,,,-99.99,,2013-11-24 10:17:00,
2013-11-24 01:22:00,33.0,32.9,28.59,South,179,2.4,-999.0,99,0.00,,,-99.99,,2013-11-24 10:22:00,
2013-11-24 01:27:00,32.9,32.8,28.58,WNW,295,1.8,-999.0,99,0.00,,,-99.99,,2013-11-24 10:27:00,
2013-11-24 01:32:00,33.0,32.9,28.59,West,259,2.4,-999.0,99,0.00,,,-99.99,,2013-11-24 10:32:00,
2013-11-24 01:37:00,33.0,32.9,28.60,NW,322,0.7,-999.0,99,0.00,,,-99.99,,2013-11-24 10:37:00,
2013-11-24 01:42:00,32.9,32.8,28.58,NNW,329,1.1,-999.0,99,0.00,,,-99.99,,2013-11-24 10:42:00,
2013-11-24 01:47:00,32.8,32.8,28.59,SSW,209,0.7,-999.0,99,0.00,,,-99.99,,2013-11-24 10:47:00,
2013-11-24 01:52:00,33.0,32.9,28.57,West,273,2.1,-999.0,99,0.00,,,-99.99,,2013-11-24 10:52:00,
2013-11-24 01:57:00,32.9,32.8,28.59,NE,42,2.4,-999.0,99,0.00,,,-99.99,,2013-11-24 10:57:00,
2013-11-24 02:02:00,33.0,33.0,28.59,NNE,16,1.0,-999.0,99,0.00,,,-99.99,,2013-11-24 11:02:00,
2013-11-24 02:07:00,33.1,33.0,28.59,ENE,71,1.0,-999.0,99,0.00,,,-99.99,,2013-11-24 11:07:00,
2013-11-24 02:12:00,33.1,33.0,28.60,SE,145,4.3,-999.0,99,0.00,,,-99.99,,2013-11-24 11:12:00,
2013-11-24 02:17:00,32.9,32.9,28.60,SSE,155,1.4,-999.0,99,0.00,,,-99.99,,2013-11-24 11:17:00,
2013-11-24 02:22:00,33.0,33.0,28.60,SE,134,2.4,-999.0,99,0.00,,,-99.99,,2013-11-24 11:22:00,
2013-11-24 02:27:00,32.9,32.8,28.61,WNW,289,1.1,-999.0,99,0.00,,,-99.99,,2013-11-24 11:27:00,
2013-11-24 02:32:00,33.1,33.0,28.58,NW,323,3.2,-999.0,99,0.00,,,-99.99,,2013-11-24 11:32:00,
2013-11-24 02:37:00,33.3,33.2,28.59,NE,38,2.5,-999.0,99,0.00,,,-99.99,,2013-11-24 11:37:00,
2013-11-24 02:42:00,33.6,33.6,28.58,NNE,12,1.0,-999.0,99,0.00,,,-99.99,,2013-11-24 11:42:00,
2013-11-24 02:47:00,33.6,33.5,28.59,South,171,2.4,-999.0,99,0.00,,,-99.99,,2013-11-24 11:47:00,
2013-11-24 02:52:00,33.6,33.5,28.58,WSW,256,6.9,-999.0,99,0.00,,,-99.99,,2013-11-24 11:52:00,
2013-11-24 02:57:00,33.6,33.5,28.58,South,172,3.0,-999.0,99,0.00,,,-99.99,,2013-11-24 11:57:00,
2013-11-24 03:02:00,33.5,33.4,28.59,NW,319,18.6,-999.0,99,0.00,,,-99.99,,2013-11-24 12:02:00,
2013-11-24 03:07:00,33.4,33.3,28.57,WNW,301,9.8,-999.0,99,0.00,,,-99.99,,2013-11-24 12:07:00,
2013-11-24 03:12:00,33.0,32.9,28.57,NW,307,3.8,-999.0,99,0.00,,,-99.99,,2013-11-24 12:12:00,
2013-11-24 03:17:00,33.0,33.0,28.56,East,81,1.8,-999.0,99,0.00,,,-99.99,,2013-11-24 12:17:00,
2013-11-24 03:22:00,33.2,33.1,28.57,SSW,211,0.7,-999.0,99,0.00,,,-99.99,,2013-11-24 12:22:00,
2013-11-24 03:27:00,33.5,33.4,28.58,SSW,196,3.5,-999.0,99,0.00,,,-99.99,,2013-11-24 12:27:00,
2013-11-24 03:32:00,33.5,33.5,28.56,West,261,6.2,-999.0,99,0.00,,,-99.99,,2013-11-24 12:32:00,
2013-11-24 03:37:00,33.5,33.5,28.56,North,354,1.5,-999.0,99,0.00,,,-99.99,,2013-11-24 12:37:00,
2013-11-24 03:42:00,33.5,33.4,28.57,SSE,156,4.7,-999.0,99,0.00,,,-99.99,,2013-11-24 12:42:00,
2013-11-24 03:47:00,33.4,33.3,28.56,East,97,4.2,-999.0,99,0.00,,,-99.99,,2013-11-24 12:47:00,
2013-11-24 03:52:00,33.4,33.3,28.58,SW,228,6.2,-999.0,99,0.00,,,-99.99,,2013-11-24 12:52:00,
2013-11-24 03:57:00,33.5,33.5,28.56,NW,326,1.7,-999.0,99,0.00,,,-99.99,,2013-11-24 12:57:00,
2013-11-24 04:02:00,33.8,33.8,28.55,West,275,3.8,-999.0,99,0.00,,,-99.99,,2013-11-24 13:02:00,
2013-11-24 04:07:00,33.6,33.6,28.57,North,9,8.4,-999.0,99,0.00,,,-99.99,,2013-11-24 13:07:00,
2013-11-24 04:12:00,33.9,33.8,28.56,ENE,70,1.5,-999.0,99,0.00,,,-99.99,,2013-11-24 13:12:00,
2013-11-24 04:17:00,33.8,33.7,28.56,NNE,27,2.8,-999.0,99,0.00,,,-99.99,,2013-11-24 13:17:00,
2013-11-24 04:22:00,33.9,33.9,28.55,South,178,3.2,-999.0,99,0.00,,,-99.99,,2013-11-24 13:22:00,
2013-11-24 04:27:00,34.0,33.9,28.55,North,9,6.3,-999.0,99,0.00,,,-99.99,,2013-11-24 13:27:00,
2013-11-24 04:32:00,34.1,34.0,28.55,NNW,341,3.5,-999.0,99,0.00,,,-99.99,,2013-11-24 13:32:00,
2013-11-24 04:37:00,34.1,34.0,28.53,WNW,303,5.0,-999.0,99,0.00,,,-99.99,,2013-11-24 13:37:00,
2013-11-24 04:42:00,33.9,33.8,28.53,East,82,10.0,-999.0,99,0.00,,,-99.99,,2013-11-24 13:42:00,
2013-11-24 04:47:00,33.8,33.7,28.54,ENE,78,7.4,-999.0,99,0.00,,,-99.99,,2013-11-24 13:47:00,
2013-11-24 04:52:00,33.8,33.7,28.54,NE,55,1.7,-999.0,99,0.00,,,-99.99,,2013-11-24 13:52:00,
2013-11-24 04:57:00,33.8,33.7,28.56,ESE,106,5.4,-999.0,99,0.00,,,-99.99,,2013-11-24 13:57:00,
2013-11-24 05:02:00,34.0,33.9,28.55,West,263,4.4,-999.0,99,0.00,,,-99.99,,2013-11-24 14:02:00,
2013-11-24 05:07:00,34.1,34.0,28.52,North,353,2.8,-999.0,99,0.00,,,-99.99,,2013-11-24 14:07:00,
2013-11-24 05:12:00,34.1,34.0,28.55,East,91,2.6,-999.0,99,0.00,,,-99.99,,2013-11-24 14:12:00,
2013-11-24 05:17:00,33.9,33.8,28.53,South,184,3.6,-999.0,99,0.00,,,-99.99,,2013-11-24 14:17:00,
2013-11-24 05:22:00,33.8,33.8,28.53,NE,41,7.9,-999.0,99,0.00,,,-99.99,,2013-11-24 14:22:00,
2013-11-24 05:27:00,34.0,33.9,28.53,NNW,327,4.9,-999.0,99,0.00,,,-99.99,,2013-11-24 14:27:00,
2013-11-24 05:32:00,34.1,34.0,28.52,NNE,30,8.1,-999.0,99,0.00,,,-99.99,,2013-11-24 14:32:00,
2013-11-24 05:37:00,33.9,33.9,28.52,WNW,288,4.4,-999.0,99,0.00,,,-99.99,,2013-11-24 14:37:00,
2013-11-24 05:42:00,33.9,33.8,28.54,SE,130,4.8,-999.0,99,0.00,,,-99.99,,2013-11-24 14:42:00,
2013-11-24 05:47:00,33.9,33.8,28.54,ESE,123,2.3,-999.0,99,0.00,,,-99.99,,2013-11-24 14:47:00,
2013-11-24 05:52:00,33.9,33.8,28.51,North,0,6.0,-999.0,99,0.00,,,-99.99,,2013-11-24 14:52:00,
2013-11-24 05:57:00,33.8,33.8,28.51,NNE,30,3.5,-999.0,99,0.00,,,-99.99,,2013-11-24 14:57:00,
2013-11-24 06:02:00,33.8,33.8,28.55,West,276,7.0,-999.0,99,0.00,,,-99.99,,2013-11-24 15:02:00,
2013-11-24 06:07:00,33.9,33.8,28.52,NNW,331,4.7,-999.0,99,0.00,,,-99.99,,2013-11-24 15:07:00,
2013-11-24 06:12:00,33.9,33.9,28.53,NNE,17,2.9,-999.0,99,0.00,,,-99.99,,2013-11-24 15:12:00,
2013-11-24 06:17:00,34.0,33.9,28.55,SE,127,2.0,-999.0,99,0.00,,,-99.99,,2013-11-24 15:17:00,
2013-11-24 06:22:00,33.9,33.9,28.54,SW,236,2.5,-999.0,99,0.00,,,-99.99,,2013-11-24 15:22:00,
2013-11-24 06:27:00,34.1,34.0,28.51,WNW,295,3.0,-999.0,99,0.00,,,-99.99,,2013-11-24 15:27:00,
2013-11-24 06:32:00,34.0,33.9,28.51,SE,132,2.7,-999.0,99,0.00,,,-99.99,,2013-11-24 15:32:00,
2013-11-24 06:37:00,34.1,34.0,28.55,SW,226,6.3,-999.0,99,0.00,,,-99.99,,2013-11-24 15:37:00,
2013-11-24 06:42:00,33.3,33.3,28.55,WNW,301,4.7,-999.0,99,0.00,,,-99.99,,2013-11-24 15:42:00,
2013-11-24 06:47:00,33.4,33.3,28.56,NNE,15,2.1,-999.0,99,0.00,,,-99.99,,2013-11-24 15:47:00,
2013-11-24 06:52:00,33.3,33.3,28.54,East,85,2.5,-999.0,99,0.00,,,-99.99,,2013-11-24 15:52:00,
2013-11-24 06:57:00,33.0,32.9,28.53,ENE,77,4.7,-999.0,99,0.00,,,-99.99,,2013-11-24 15:57:00,
2013-11-24 07:02:00,33.2,33.2,28.54,NNW,337,3.4,-999.0,99,0.00,,,-99.99,,2013-11-24 16:02:00,
2013-11-24 07:07:00,33.6,33.5,28.50,SSE,157,8.2,-999.0,99,0.00,,,-99.99,,2013-11-24 16:07:00,
2013-11-24 07:12:00,34.0,33.9,28.54,SW,231,4.8,-999.0,99,0.00,,,-99.99,,2013-11-24 16:12:00,
2013-11-24 07:17:00,34.1,34.1,28.53,East,87,1.5,-999.0,99,0.00,,,-99.99,,2013-11-24 16:17:00,
2013-11-24 07:22:00,34.2,34.1,28.53,SW,225,4.3,-999.0,99,0.00,,,-99.99,,2013-11-24 16:22:00,
2013-11-24 07:27:00,34.1,34.1,28.51,NW,314,5.8,-999.0,99,0.00,,,-99.99,,2013-11-24 16:27:00,
2013-11-24 07:32:00,33.9,33.8,28.52,NNE,16,9.0,-999.0,99,0.00,,,-99.99,,2013-11-24 16:32:00,
2013-11-24 07:37:00,34.1,34.1,28.53,SE,141,2.6,-999.0,99,0.00,,,-99.99,,2013-11-24 16:37:00,
2013-11-24 07:42:00,34.2,34.2,28.53,NE,52,3.0,-999.0,99,0.00,,,-99.99,,2013-11-24 16:42:00,
2013-11-24 07:47:00,34.0,33.9,28.53,NW,319,7.1,-999.0,99,0.00,,,-99.99,,2013-11-24 16:47:00,
2013-11-24 07:52:00,33.7,33.6,28.52,NNW,332,11.2,-999.0,99,0.00,,,-99.99,,2013-11-24 16:52:00,
2013-11-24 07:57:00,33.6,33.6,28.52,ENE,74,4.8,-999.0,99,0.00,,,-99.99,,2013-11-24 16:57:00,
2013-11-24 08:02:00,33.5,33.4,28.54,ENE,66,3.2,-999.0,99,0.00,,,-99.99,,2013-11-24 17:02:00,
2013-11-24 08:07:00,33.6,33.6,28.52,South,173,2.4,-999.0,99,0.00,,,-99.99,,2013-11-24 17:07:00,
2013-11-24 08:12:00,33.5,33.5,28.53,ESE,106,4.8,-999.0,99,0.00,,,-99.99,,2013-11-24 17:12:00,
2013-11-24 08:17:00,33.2,33.2,28.53,SW,219,6.5,-999.0,99,0.00,,,-99.99,,2013-11-24 17:17:00,
2013-11-24 08:22:00,33.3,33.2,28.52,East,85,3.3,-999.0,99,0.00,,,-99.99,,2013-11-24 17:22:00,
2013-11-24 08:27:00,33.3,33.3,28.51,SSE,149,3.6,-999.0,99,0.00,,,-99.99,,2013-11-24 17:27:00,
2013-11-24 08:32:00,33.0,33.0,28.49,NNW,331,3.8,-999.0,99,0.00,,,-99.99,,2013-11-24 17:32:00,
2013-11-24 08:38:00,33.0,33.0,28.51,NE,51,1.9,-999.0,99,0.00,,,-99.99,,2013-11-24 17:38:00,
2013-11-24 08:43:00,32.8,32.8,28.51,ENE,70,9.1,-999.0,99,0.00,,,-99.99,,2013-11-24 17:43:00,
2013-11-24 08:48:00,33.1,33.0,28.52,West,265,5.7,-999.0,99,0.00,,,-99.99,,2013-11-24 17:48:00,
2013-11-24 08:53:00,33.2,33.2,28.52,East,91,4.4,-999.0,99,0.00,,,-99.99,,2013-11-24 17:53:00,
2013-11-24 08:58:00,33.5,33.4,28.51,North,353,4.8,-999.0,99,0.00,,,-99.99,,2013-11-24 17:58:00,
2013-11-24 09:03:00,33.5,33.5,28.51,West,265,4.3,-999.0,99,0.00,,,-99.99,,2013-11-24 18:03:00,
2013-11-24 09:08:00,33.6,33.6,28.52,WNW,288,7.1,-999.0,99,0.00,,,-99.99,,2013-11-24 18:08:00,
2013-11-24 09:13:00,33.8,33.7,28.54,ESE,108,4.5,-999.0,99,0.00,,,-99.99,,2013-11-24 18:13:00,
2013-11-24 09:18:00,33.7,33.6,28.53,East,87,7.5,-999.0,99,0.00,,,-99.99,,2013-11-24 18:18:00,
2013-11-24 09:23:00,33.8,33.7,28.53,ENE,74,5.3,-999.0,99,0.00,,,-99.99,,2013-11-24 18:23:00,
2013-11-24 09:28:00,34.1,33.9,28.51,WNW,285,10.8,-999.0,99,0.00,,,-99.99,,2013-11-24 18:28:00,
2013-11-24 09:33:00,34.1,34.0,28.53,East,95,2.8,-999.0,99,0.00,,,-99.99,,2013-11-24 18:33:00,
2013-11-24 09:38:00,34.1,33.9,28.53,SW,228,3.2,-999.0,99,0.00,,,-99.99,,2013-11-24 18:38:00,
2013-11-24 09:43:00,33.9,33.8,28.55,ENE,73,10.9,-999.0,99,0.00,,,-99.99,,2013-11-24 18:43:00,
2013-11-24 09:48:00,34.1,34.0,28.54,NNW,335,7.3,-999.0,99,0.00,,,-99.99,,2013-11-24 18:48:00,
2013-11-24 09:53:00,34.2,34.0,28.53,NNW,327,7.2,-999.0,99,0.00,,,-99.99,,2013-11-24 18:53:00,
2013-11-24 09:58:00,34.2,34.0,28.53,ENE,66,4.5,-999.0,99,0.00,,,-99.99,,2013-11-24 18:58:00,
2013-11-24 10:03:00,34.1,33.8,28.53,East,97,5.8,-999.0,98,0.00,,,-99.99,,2013-11-24 19:03:00,
2013-11-24 10:08:00,34.1,33.8,28.52,SSE,161,8.1,-999.0,98,0.00,,,-99.99,,2013-11-24 19:08:00,
2013-11-24 10:13:00,34.2,33.9,28.52,NE,51,1.2,-999.0,98,0.00,,,-99.99,,2013-11-24 19:13:00,
2013-11-24 10:18:00,34.2,33.8,28.52,South,187,3.5,-999.0,98,0.00,,,-99.99,,2013-11-24 19:18:00,
2013-11-24 10:24:00,34.2,33.7,28.51,NNE,13,6.1,-999.0,97,0.00,,,-99.99,,2013-11-24 19:24:00,
2013-11-24 10:29:00,34.2,33.5,28.52,NE,38,4.0,-999.0,97,0.00,,,-99.99,,2013-11-24 19:29:00,
2013-11-24 10:34:00,34.1,33.5,28.51,NNE,20,8.1,-999.0,97,0.00,,,-99.99,,2013-11-24 19:34:00,
2013-11-24 10:39:00,33.2,32.4,28.51,SSW,199,12.9,-999.0,97,0.01,,,-99.99,,2013-11-24 19:39:00,
2013-11-24 10:44:00,33.1,32.3,28.50,WNW,288,2.9,-999.0,96,0.00,,,-99.99,,2013-11-24 19:44:00,
2013-11-24 10:49:00,33.5,32.5,28.52,East,98,2.3,-999.0,96,0.00,,,-99.99,,2013-11-24 19:49:00,
2013-11-24 10:54:00,33.5,32.2,28.52,North,4,8.7,-999.0,94,0.00,,,-99.99,,2013-11-24 19:54:00,
2013-11-24 10:59:00,33.7,32.4,28.53,NNE,21,6.8,-999.0,94,0.00,,,-99.99,,2013-11-24 19:59:00,
2013-11-24 11:04:00,34.2,33.0,28.55,WNW,301,3.5,-999.0,95,0.00,,,-99.99,,2013-11-24 20:04:00,
2013-11-24 11:09:00,34.2,33.0,28.52,SE,138,2.9,-999.0,95,0.00,,,-99.99,,2013-11-24 20:09:00,
2013-11-24 11:14:00,34.4,33.3,28.52,North,9,1.0,-999.0,95,0.00,,,-99.99,,2013-11-24 20:14:00,
2013-11-24 11:19:00,34.3,33.3,28.53,East,92,8.1,-999.0,96,0.00,,,-99.99,,2013-11-24 20:19:00,
2013-11-24 11:24:00,34.5,33.6,28.53,NNE,23,5.3,-999.0,96,0.00,,,-99.99,,2013-11-24 20:24:00,
2013-11-24 11:29:00,34.5,33.2,28.52,South,178,10.6,-999.0,94,0.00,,,-99.99,,2013-11-24 20:29:00,
2013-11-24 11:34:00,34.6,33.1,28.51,WSW,241,9.3,-999.0,94,0.01,,,-99.99,,2013-11-24 20:34:00,
2013-11-24 11:39:00,34.9,33.4,28.50,NE,41,6.9,-999.0,94,0.00,,,-99.99,,2013-11-24 20:39:00,
2013-11-24 11:44:00,34.8,33.6,28.51,WNW,289,6.7,-999.0,95,0.03,,,-99.99,,2013-11-24 20:44:00,
2013-11-24 11:49:00,34.6,33.3,28.50,NNW,331,12.4,-999.0,94,0.01,,,-99.99,,2013-11-24 20:49:00,
2013-11-24 11:54:00,34.9,33.7,28.52,NNE,31,6.8,-999.0,95,0.00,,,-99.99,,2013-11-24 20:54:00,
2013-11-24 11:59:00,34.8,33.8,28.54,NNW,332,5.3,-999.0,96,0.02,,,-99.99,,2013-11-24 20:59:00,
2013-11-24 12:04:00,34.5,33.4,28.52,NNE,16,3.4,-999.0,95,0.00,,,-99.99,,2013-11-24 21:04:00,
2013-11-24 12:09:00,34.4,33.2,28.50,SW,236,13.8,-999.0,95,0.01,,,-99.99,,2013-11-24 21:09:00,
2013-11-24 12:14:00,34.5,33.2,28.53,NW,323,13.1,-999.0,95,0.03,,,-99.99,,2013-11-24 21:14:00,
2013-11-24 12:19:00,34.5,33.5,28.51,North,6,3.4,-999.0,96,0.00,,,-99.99,,2013-11-24 21:19:00,
2013-11-24 12:24:00,34.4,33.6,28.51,North,5,3.4,-999.0,96,0.00,,,-99.99,,2013-11-24 21:24:00,
2013-11-24 12:29:00,34.4,33.8,28.52,ESE,119,4.4,-999.0,97,0.01,,,-99.99,,2013-11-24 21:29:00,
2013-11-24 12:34:00,34.6,34.2,28.53,ENE,61,5.0,-999.0,98,0.04,,,-99.99,,2013-11-24 21:34:00,
2013-11-24 12:39:00,34.6,34.2,28.50,South,173,3.4,-999.0,98,0.04,,,-99.99,,2013-11-24 21:39:00,
2013-11-24 12:44:00,34.4,34.0,28.50,North,350,9.1,-999.0,98,0.02,,,-99.99,,2013-11-24 21:44:00,
2013-11-24 12:49:00,34.5,34.0,28.49,WSW,252,3.9,-999.0,98,0.01,,,-99.99,,2013-11-24 21:49:00,
2013-11-24 12:54:00,34.5,34.1,28.50,North,351,4.7,-999.0,98,0.02,,,-99.99,,2013-11-24 21:54:00,
2013-11-24 12:59:00,34.1,33.7,28.49,ENE,67,8.9,-999.0,98,0.00,,,-99.99,,2013-11-24 21:59:00,
2013-11-24 13:04:00,34.1,33.5,28.48,NNE,19,9.4,-999.0,97,0.00,,,-99.99,,2013-11-24 22:04:00,
2013-11-24 13:09:00,34.0,33.4,28.50,NNW,338,5.6,-999.0,97,0.00,,,-99.99,,2013-11-24 22:09:00,
2013-11-24 13:14:00,34.4,33.9,28.50,WNW,285,8.1,-999.0,97,0.04,,,-99.99,,2013-11-24 22:14:00,
2013-11-24 13:19:00,34.5,33.9,28.50,NW,316,7.2,-999.0,97,0.00,,,-99.99,,2013-11-24 22:19:00,
2013-11-24 13:24:00,34.5,34.0,28.50,SE,134,6.7,-999.0,97,0.02,,,-99.99,,2013-11-24 22:24:00,
2013-11-24 13:29:00,34.7,34.2,28.51,SSE,164,7.4,-999.0,97,0.02,,,-99.99,,2013-11-24 22:29:00,
2013-11-24 13:34:00,34.8,34.3,28.48,SE,127,8.6,-999.0,98,0.02,,,-99.99,,2013-11-24 22:34:00,
2013-11-24 13:39:00,34.8,34.4,28.49,NNE,13,2.4,-999.0,98,0.00,,,-99.99,,2013-11-24 22:39:00,
2013-11-24 13:44:00,34.9,34.5,28.50,SSW,198,3.6,-999.0,98,0.01,,,-99.99,,2013-11-24 22:44:00,
2013-11-24 13:49:00,35.0,34.3,28.49,East,85,5.1,-999.0,97,0.03,,,-99.99,,2013-11-24 22:49:00,
2013-11-24 13:54:00,35.2,34.2,28.49,NNW,338,6.3,-999.0,96,0.03,,,-99.99,,2013-11-24 22:54:00,
2013-11-24 13:59:00,35.1,34.1,28.48,NNW,333,7.0,-999.0,96,0.00,,,-99.99,,2013-11-24 22:59:00,
2013-11-24 14:04:00,35.0,34.0,28.48,NNW,339,7.0,-999.0,96,0.01,,,-99.99,,2013-11-24 23:04:00,
2013-11-24 14:09:00,35.0,34.1,28.49,SW,235,4.4,-999.0,96,0.03,,,-99.99,,2013-11-24 23:09:00,
2013-11-24 14:14:00,35.0,34.2,28.49,NNE,19,4.1,-999.0,96,0.00,,,-99.99,,2013-11-24 23:14:00,
2013-11-24 14:19:00,35.0,34.1,28.49,WNW,286,3.1,-999.0,96,0.00,,,-99.99,,2013-11-24 23:19:00,
2013-11-24 14:24:00,35.0,34.1,28.50,East,95,14.3,-999.0,96,0.02,,,-99.99,,2013-11-24 23:24:00,
2013-11-24 14:29:00,35.1,34.2,28.49,SSW,204,7.5,-999.0,96,0.00,,,-99.99,,2013-11-24 23:29:00,
2013-11-24 14:34:00,34.8,33.8,28.51,East,98,8.1,-999.0,95,0.02,,,-99.99,,2013-11-24 23:34:00,
2013-11-24 14:39:00,34.9,33.7,28.49,West,272,13.3,-999.0,95,0.04,,,-99.99,,2013-11-24 23:39:00,
2013-11-24 14:44:00,35.2,34.3,28.52,SE,132,5.3,-999.0,96,0.02,,,-99.99,,2013-11-24 23:44:00,
2013-11-24 14:49:00,34.7,33.8,28.50,East,85,3.2,-999.0,96,0.04,,,-99.99,,2013-11-24 23:49:00,
2013-11-24 14:54:00,34.8,33.8,28.49,NNE,22,13.0,-999.0,95,0.00,,,-99.99,,2013-11-24 23:54:00,
2013-11-24 14:59:00,35.0,34.0,28.48,WSW,239,6.8,-999.0,96,0.05,,,-99.99,,2013-11-24 23:59:00,
2013-11-24 15:04:00,34.7,33.8,28.49,NNW,339,26.2,-999.0,96,0.07,,,-99.99,,2013-11-25 00:04:00,
2013-11-24 15:09:00,34.5,33.7,28.49,ENE,57,6.5,-999.0,96,0.03,,,-99.99,,2013-11-25 00:09:00,
2013-11-24 15:14:00,34.6,33.7,28.49,NNW,347,7.4,-999.0,96,0.05,,,-99.99,,2013-11-25 00:14:00,
2013-11-24 15:19:00,34.5,33.6,28.49,SW,223,8.2,-999.0,96,0.00,,,-99.99,,2013-11-25 00:19:00,
2013-11-24 15:24:00,34.7,33.8,28.49,NNE,26,5.0,-999.0,96,0.00,,,-99.99,,2013-11-25 00:24:00,
2013-11-24 15:29:00,34.6,33.8,28.50,NE,40,8.1,-999.0,96,0.00,,,-99.99,,2013-11-25 00:29:00,
2013-11-24 15:34:00,34.7,33.9,28.50,SW,216,3.1,-999.0,97,0.00,,,-99.99,,2013-11-25 00:34:00,
2013-11-24 15:39:00,34.5,33.9,28.49,SW,236,16.6,-999.0,97,0.03,,,-99.99,,2013-11-25 00:39:00,
2013-11-24 15:44:00,34.0,33.5,28.50,East,91,11.3,-999.0,98,0.04,,,-99.99,,2013-11-25 00:44:00,
2013-11-24 15:49:00,33.9,33.5,28.49,South,174,6.4,-999.0,98,0.00,,,-99.99,,2013-11-25 00:49:00,
2013-11-24 15:54:00,34.1,33.7,28.49,WNW,298,5.2,-999.0,98,0.00,,,-99.99,,2013-11-25 00:54:00,
2013-11-24 15:59:00,34.0,33.7,28.48,NW,318,17.5,-999.0,98,0.01,,,-99.99,,2013-11-25 00:59:00,
2013-11-24 16:04:00,34.2,33.9,28.49,WNW,282,10.1,-999.0,98,0.01,,,-99.99,,2013-11-25 01:04:00,
2013-11-24 16:09:00,34.3,34.0,28.50,West,267,29.0,-999.0,98,0.03,,,-99.99,,2013-11-25 01:09:00,
2013-11-24 16:14:00,34.5,34.3,28.49,North,353,7.7,-999.0,99,0.00,,,-99.99,,2013-11-25 01:14:00,
2013-11-24 16:19:00,34.7,34.5,28.49,WNW,282,4.6,-999.0,99,0.02,,,-99.99,,2013-11-25 01:19:00,
2013-11-24 16:24:00,34.8,34.5,28.45,NE,43,4.9,-999.0,98,0.01,,,-99.99,,2013-11-25 01:24:00,
2013-11-24 16:29:00,34.8,34.6,28.48,East,81,7.3,-999.0,99,0.03,,,-99.99,,2013-11-25 01:29:00,
2013-11-24 16:34:00,34.9,34.7,28.47,WNW,284,11.4,-999.0,99,0.00,,,-99.99,,2013-11-25 01:34:00,
2013-11-24 16:39:00,34.8,34.5,28.48,SSE,156,4.9,-999.0,98,0.02,,,-99.99,,2013-11-25 01:39:00,
2013-11-24 16:44:00,34.9,34.5,28.46,NE,54,4.5,-999.0,98,0.00,,,-99.99,,2013-11-25 01:44:00,
2013-11-24 16:49:00,34.8,34.4,28.48,NNE,29,14.0,-999.0,98,0.00,,,-99.99,,2013-11-25 01:49:00,
2013-11-24 16:54:00,34.8,34.4,28.47,West,265,8.8,-999.0,98,0.00,,,-99.99,,2013-11-25 01:54:00,
2013-11-24 16:59:00,34.5,34.2,28.47,WNW,300,3.1,-999.0,98,0.00,,,-99.99,,2013-11-25 01:59:00,
2013-11-24 17:04:00,34.7,34.3,28.50,North,354,5.5,-999.0,98,0.00,,,-99.99,,2013-11-25 02:04:00,
2013-11-24 17:09:00,34.8,34.5,28.48,WNW,296,6.5,-999.0,98,0.00,,,-99.99,,2013-11-25 02:09:00,
2013-11-24 17:14:00,34.8,34.5,28.50,West,281,15.0,-999.0,98,0.02,,,-99.99,,2013-11-25 02:14:00,
2013-11-24 17:19:00,34.7,34.4,28.46,SE,145,7.4,-999.0,98,0.00,,,-99.99,,2013-11-25 02:19:00,
2013-11-24 17:24:00,34.8,34.5,28.47,West,280,30.3,-999.0,98,0.07,,,-99.99,,2013-11-25 02:24:00,
2013-11-24 17:29:00,34.8,34.5,28.47,NW,305,19.7,-999.0,98,0.02,,,-99.99,,2013-11-25 02:29:00,
2013-11-24 17:34:00,34.8,34.5,28.48,West,266,39.2,-999.0,98,0.05,,,-99.99,,2013-11-25 02:34:00,
2013-11-24 17:39:00,35.0,34.7,28.47,NW,311,5.6,-999.0,98,0.00,,,-99.99,,2013-11-25 02:39:00,
2013-11-24 17:44:00,35.1,34.8,28.48,West,268,26.8,-999.0,98,0.05,,,-99.99,,2013-11-25 02:44:00,
2013-11-24 17:49:00,34.8,34.5,28.47,SSW,213,11.9,-999.0,98,0.01,,,-99.99,,2013-11-25 02:49:00,
2013-11-24 17:54:00,34.6,34.3,28.46,West,273,20.2,-999.0,98,0.06,,,-99.99,,2013-11-25 02:54:00,
2013-11-24 17:59:00,34.9,34.6,28.45,NW,313,16.4,-999.0,98,0.02,,,-99.99,,2013-11-25 02:59:00,
2013-11-24 18:04:00,34.7,34.4,28.49,SW,235,13.1,-999.0,98,0.02,,,-99.99,,2013-11-25 03:04:00,
2013-11-24 18:09:00,35.0,34.7,28.48,NW,318,11.1,-999.0,98,0.02,,,-99.99,,2013-11-25 03:09:00,
2013-11-24 18:14:00,35.0,34.7,28.49,SSW,211,6.2,-999.0,98,0.01,,,-99.99,,2013-11-25 03:14:00,
2013-11-24 18:19:00,35.0,34.7,28.48,West,261,25.6,-999.0,98,0.07,,,-99.99,,2013-11-25 03:19:00,
2013-11-24 18:24:00,34.7,34.4,28.46,SW,231,9.6,-999.0,98,0.01,,,-99.99,,2013-11-25 03:24:00,
2013-11-24 18:29:00,34.4,34.2,28.44,West,264,3.1,-999.0,98,0.00,,,-99.99,,2013-11-25 03:29:00,
2013-11-24 18:34:00,34.4,34.2,28.48,SSE,154,10.2,-999.0,99,0.00,,,-99.99,,2013-11-25 03:34:00,
2013-11-24 18:39:00,34.2,34.0,28.48,NW,313,9.7,-999.0,99,0.03,,,-99.99,,2013-11-25 03:39:00,
2013-11-24 18:44:00,34.4,34.2,28.46,NE,48,9.3,-999.0,99,0.00,,,-99.99,,2013-11-25 03:44:00,
2013-11-24 18:49:00,34.2,34.0,28.48,WNW,303,10.5,-999.0,99,0.00,,,-99.99,,2013-11-25 03:49:00,
2013-11-24 18:54:00,34.7,34.5,28.48,WNW,303,2.6,-999.0,99,0.02,,,-99.99,,2013-11-25 03:54:00,
2013-11-24 18:59:00,34.7,34.5,28.49,WNW,302,5.9,-999.0,99,0.01,,,-99.99,,2013-11-25 03:59:00,
2013-11-24 19:04:00,34.6,34.4,28.48,SE,139,6.1,-999.0,99,0.00,,,-99.99,,2013-11-25 04:04:00,
2013-11-24 19:09:00,34.2,34.1,28.47,NW,309,1.2,-999.0,99,0.01,,,-99.99,,2013-11-25 04:09:00,
2013-11-24 19:14:00,34.6,34.4,28.47,SSE,156,12.3,-999.0,99,0.01,,,-99.99,,2013-11-25 04:14:00,
2013-11-24 19:19:00,34.7,34.5,28.47,NW,325,2.6,-999.0,99,0.00,,,-99.99,,2013-11-25 04:19:00,
2013-11-24 19:25:00,35.0,34.8,28.47,West,273,19.0,-999.0,99,0.02,,,-99.99,,2013-11-25 04:25:00,
2013-11-24 19:30:00,34.9,34.7,28.47,NNW,327,9.4,-999.0,99,0.00,,,-99.99,,2013-11-25 04:30:00,
2013-11-24 19:35:00,34.4,34.2,28.47,South,170,10.4,-999.0,99,0.00,,,-99.99,,2013-11-25 04:35:00,
2013-11-24 19:40:00,34.4,34.2,28.46,WNW,302,9.5,-999.0,99,0.00,,,-99.99,,2013-11-25 04:40:00,
2013-11-24 19:45:00,34.5,34.4,28.46,NNW,328,8.4,-999.0,99,0.00,,,-99.99,,2013-11-25 04:45:00,
2013-11-24 19:50:00,34.2,34.0,28.48,WNW,292,11.6,-999.0,99,0.00,,,-99.99,,2013-11-25 04:50:00,
2013-11-24 19:55:00,34.0,33.9,28.48,West,271,10.8,-999.0,99,0.02,,,-99.99,,2013-11-25 04:55:00,
2013-11-24 20:00:00,34.2,34.1,28.46,WSW,246,10.2,-999.0,99,0.00,,,-99.99,,2013-11-25 05:00:00,
2013-11-24 20:01:00,34.1,33.9,28.46,NW,304,14.0,-999.0,99,0.01,,,-99.99,,2013-11-25 05:01:00,
2013-11-24 20:02:00,34.2,34.0,28.46,West,260,19.5,-999.0,99,0.02,,,-99.99,,2013-11-25 05:02:00,
2013-11-24 20:03:00,34.2,34.1,28.46,NW,304,5.9,-999.0,99,0.00,,,-99.99,,2013-11-25 05:03:00,
2013-11-24 20:04:00,34.3,34.2,28.46,WSW,248,12.3,-999.0,99,0.04,,,-99.99,,2013-11-25 05:04:00,
2013-11-24 20:05:00,34.3,34.2,28.45,WNW,291,21.8,-999.0,99,0.03,,,-99.99,,2013-11-25 05:05:00,
2013-11-24 20:10:00,34.5,34.4,28.46,NNW,333,21.1,-999.0,99,0.01,,,-99.99,,2013-11-25 05:10:00,
2013-11-24 20:15:00,34.6,34.5,28.45,WNW,299,17.2,-999.0,99,0.05,,,-99.99,,2013-11-25 05:15:00,
2013-11-24 20:20:00,34.5,34.4,28.48,West,271,14.2,-999.0,99,0.01,,,-99.99,,2013-11-25 05:20:00,
2013-11-24 20:25:00,34.4,34.3,28.45,NW,318,8.4,-999.0,99,0.00,,,-99.99,,2013-11-25 05:25:00,
2013-11-24 20:30:00,34.4,34.3,28.47,WSW,246,17.3,-999.0,99,0.00,,,-99.99,,2013-11-25 05:30:00,
2013-11-24 20:35:00,34.4,34.3,28.46,NNW,328,6.7,-999.0,99,0.03,,,-99.99,,2013-11-25 05:35:00,
2013-11-24 20:40:00,34.5,34.4,28.44,WNW,285,9.4,-999.0,99,0.05,,,-99.99,,2013-11-25 05:40:00,
2013-11-24 20:45:00,34.2,34.1,28.45,North,349,5.6,-999.0,99,0.01,,,-99.99,,2013-11-25 05:45:00,
2013-11-24 20:50:00,33.9,33.8,28.45,NNW,347,3.8,-999.0,99,0.00,,,-99.99,,2013-11-25 05:50:00,
2013-11-24 20:55:00,33.9,33.9,28.46,West,275,8.7,-999.0,99,0.00,,,-99.99,,2013-11-25 05:55:00,
2013-11-24 21:00:00,33.8,33.7,28.45,ESE,106,6.0,-999.0,99,0.01,,,-99.99,,2013-11-25 06:00:00,
2013-11-24 21:05:00,33.6,33.5,28.47,ESE,121,8.4,-999.0,99,0.02,,,-99.99,,2013-11-25 06:05:00,
2013-11-24 21:10:00,33.5,33.4,28.47,NNW,338,7.9,-999.0,99,0.01,,,-99.99,,2013-11-25 06:10:00,
2013-11-24 21:15:00,33.5,33.4,28.46,SE,125,6.5,-999.0,99,0.00,,,-99.99,,2013-11-25 06:15:00,
2013-11-24 21:20:00,33.5,33.5,28.48,NNW,342,8.4,-999.0,99,0.00,,,-99.99,,2013-11-25 06:20:00,
2013-11-24 21:25:00,33.6,33.5,28.46,West,273,2.5,-999.0,99,0.00,,,-99.99,,2013-11-25 06:25:00,
2013-11-24 21:30:00,33.6,33.5,28.46,NNE,18,3.8,-999.0,99,0.00,,,-99.99,,2013-11-25 06:30:00,
2013-11-24 21:35:00,33.6,33.6,28.48,West,272,9.6,-999.0,99,0.00,,,-99.99,,2013-11-25 06:35:00,
2013-11-24 21:40:00,33.8,33.8,28.48,NW,314,1.7,-999.0,99,0.00,,,-99.99,,2013-11-25 06:40:00,
2013-11-24 21:45:00,34.4,34.3,28.48,WNW,300,3.2,-999.0,99,0.01,,,-99.99,,2013-11-25 06:45:00,
2013-11-24 21:50:00,34.5,34.4,28.47,NNW,335,5.0,-999.0,99,0.00,,,-99.99,,2013-11-25 06:50:00,
2013-11-24 21:55:00,34.8,34.7,28.48,West,260,8.1,-999.0,99,0.00,,,-99.99,,2013-11-25 06:55:00,
2013-11-24 22:00:00,34.8,34.7,28.46,North,3,10.8,-999.0,99,0.01,,,-99.99,,2013-11-25 07:00:00,
2013-11-24 22:05:00,34.9,34.8,28.43,WNW,287,11.1,-999.0,99,0.02,,,-99.99,,2013-11-25 07:05:00,
2013-11-24 22:10:00,35.1,35.0,28.44,North,9,5.4,-999.0,99,0.01,,,-99.99,,2013-11-25 07:10:00,
2013-11-24 22:15:00,35.0,34.9,28.45,West,273,18.0,-999.0,99,0.03,,,-99.99,,2013-11-25 07:15:00,
2013-11-24 22:20:00,34.9,34.8,28.44,ESE,115,2.8,-999.0,99,0.00,,,-99.99,,2013-11-25 07:20:00,
2013-11-24 22:25:00,34.7,34.6,28.45,SSE,152,14.9,-999.0,99,0.02,,,-99.99,,2013-11-25 07:25:00,
2013-11-24 22:30:00,34.5,34.4,28.44,North,352,11.6,-999.0,99,0.03,,,-99.99,,2013-11-25 07:30:00,
2013-11-24 22:35:00,33.9,33.9,28.46,WSW,254,6.2,-999.0,99,0.00,,,-99.99,,2013-11-25 07:35:00,
2013-11-24 22:40:00,33.8,33.7,28.47,SW,233,10.7,-999.0,99,0.00,,,-99.99,,2013-11-25 07:40:00,
2013-11-24 22:45:00,33.9,33.9,28.45,WSW,246,12.9,-999.0,99,0.01,,,-99.99,,2013-11-25 07:45:00,
2013-11-24 22:50:00,34.1,34.0,28.47,WNW,293,8.1,-999.0,99,0.00,,,-99.99,,2013-11-25 07:50:00,
2013-11-24 22:55:00,33.8,33.8,28.43,West,274,16.5,-999.0,99,0.06,,,-99.99,,2013-11-25 07:55:00,
2013-11-24 23:00:00,33.8,33.7,28.45,NNW,337,10.4,-999.0,99,0.02,,,-99.99,,2013-11-25 08:00:00,
2013-11-24 23:05:00,33.8,33.7,28.45,WSW,247,12.0,-999.0,99,0.00,,,-99.99,,2013-11-25 08:05:00,
2013-11-24 23:10:00,34.1,34.0,28.47,West,279,23.7,-999.0,99,0.04,,,-99.99,,2013-11-25 08:10:00,
2013-11-24 23:15:00,34.3,34.2,28.48,NW,311,16.1,-999.0,99,0.01,,,-99.99,,2013-11-25 08:15:00,
2013-11-24 23:20:00,34.5,34.5,28.45,NW,311,19.6,-999.0,99,0.03,,,-99.99,,2013-11-25 08:20:00,
2013-11-24 23:25:00,34.1,34.0,28.44,West,280,27.7,-999.0,99,0.05,,,-99.99,,2013-11-25 08:25:00,
2013-11-24 23:30:00,33.4,33.3,28.44,WSW,246,17.9,-999.0,99,0.00,,,-99.99,,2013-11-25 08:30:00,
2013-11-24 23:35:00,33.5,33.5,28.44,WSW,255,25.1,-999.0,99,0.06,,,-99.99,,2013-11-25 08:35:00,
2013-11-24 23:40:00,33.6,33.6,28.45,WSW,252,6.5,-999.0,99,0.00,,,-99.99,,2013-11-25 08:40:00,
2013-11-24 23:45:00,33.8,33.8,28.45,West,272,12.9,-999.0,99,0.00,,,-99.99,,2013-11-25 08:45:00,
2013-11-24 23:50:00,33.8,33.7,28.46,WSW,251,11.6,-999.0,99,0.00,,,-99.99,,2013-11-25 08:50:00,
2013-11-24 23:55:00,34.1,34.0,28.45,West,270,18.6,-999.0,99,0.01,,,-99.99,,2013-11-25 08:55:00,